Simultaneous Nadir Overpasses (SNOs) Predictions

Prediction of SNOs between FY3D and METOP-A Satellite Orbit:

Table of predicted SNOs for the next 14.0 days since TLE Epoch: 5/27/2020
Index Date (FY3D) Time (FY3D) Lat,Lon (FY3D) SZA (FY3D ) Date (METOP-A) Time (METOP-A) Lat,Lon (METOP-A) SZA (METOP-A ) Distance(km) Time Diff (sec)
1 06/08/2020 22:13:48 76.24,-169.54 53.81 06/08/2020 22:14:53 76.21,-166.06 53.55 92.30 65
2 06/08/2020 23:04:30 -76.15, -1.93 126.29 06/08/2020 23:05:37 -76.12, 0.94 126.54 76.79 67
3 06/08/2020 23:55:11 75.96, 166.05 53.47 06/08/2020 23:56:21 75.91, 167.61 53.31 42.46 70
4 06/09/2020 00:45:53 -75.88, -26.36 126.63 06/09/2020 00:47:05 -75.82, -25.37 126.77 27.59 72
5 06/09/2020 01:36:34 75.68, 141.61 53.13 06/09/2020 01:37:47 75.71, 141.61 53.14 3.25 73
6 06/09/2020 02:27:18 -75.69, -51.11 126.86 06/09/2020 02:28:29 -75.70, -51.07 126.87 2.00 71
7 06/09/2020 03:18:03 75.67, 116.25 53.13 06/09/2020 03:19:09 75.69, 116.21 53.12 1.70 66
8 06/09/2020 04:08:47 -75.69, -76.47 126.87 06/09/2020 04:09:51 -75.68, -76.47 126.89 0.25 64
9 06/09/2020 04:59:32 75.67, 90.89 53.12 06/09/2020 05:00:31 75.67, 90.80 53.10 2.31 59
10 06/09/2020 05:50:16 -75.68,-101.83 126.88 06/09/2020 05:51:13 -75.66,-101.88 126.91 2.46 57
11 06/09/2020 06:41:01 75.67, 65.52 53.11 06/09/2020 06:41:52 75.69, 65.55 53.12 2.83 51
12 06/09/2020 07:31:45 -75.68,-127.20 126.89 06/09/2020 07:32:34 -75.69,-127.14 126.89 2.03 49
13 06/09/2020 08:22:30 75.66, 40.16 53.10 06/09/2020 08:23:14 75.67, 40.14 53.09 1.02 44
14 06/09/2020 09:13:14 -75.68,-152.56 126.89 06/09/2020 09:13:56 -75.67,-152.54 126.91 0.81 42
15 06/09/2020 10:03:59 75.66, 14.80 53.09 06/09/2020 10:04:36 75.65, 14.74 53.07 2.04 37
16 06/09/2020 10:54:43 -75.67,-177.92 126.90 06/09/2020 10:55:18 -75.65,-177.94 126.93 2.67 35
17 06/09/2020 11:45:28 75.66, -10.56 53.08 06/09/2020 11:45:57 75.68, -10.52 53.09 2.54 29
18 06/09/2020 12:36:12 -75.67, 156.72 126.91 06/09/2020 12:36:39 -75.68, 156.80 126.92 2.24 27
19 06/09/2020 13:26:57 75.66, -35.92 53.07 06/09/2020 13:27:19 75.66, -35.92 53.07 0.37 22
20 06/09/2020 14:17:41 -75.67, 131.36 126.92 06/09/2020 14:18:01 -75.66, 131.40 126.94 1.44 20
21 06/09/2020 15:08:26 75.65, -61.28 53.06 06/09/2020 15:08:41 75.64, -61.33 53.05 1.98 15
22 06/09/2020 15:59:10 -75.66, 106.00 126.93 06/09/2020 15:59:23 -75.64, 105.99 126.96 3.01 13
23 06/09/2020 16:49:55 75.65, -86.64 53.05 06/09/2020 16:50:02 75.67, -86.58 53.06 2.42 7
24 06/09/2020 17:40:39 -75.66, 80.64 126.94 06/09/2020 17:40:44 -75.66, 80.73 126.94 2.61 5
25 06/09/2020 18:31:24 75.65,-112.00 53.05 06/09/2020 18:31:24 75.65,-111.99 53.04 0.46 0
26 06/09/2020 19:22:08 -75.66, 55.28 126.95 06/09/2020 19:22:06 -75.64, 55.33 126.96 2.09 2
27 06/09/2020 20:12:53 75.64,-137.36 53.04 06/09/2020 20:12:46 75.62,-137.39 53.02 2.16 7
28 06/09/2020 21:03:37 -75.65, 29.92 126.96 06/09/2020 21:03:28 -75.62, 29.93 126.99 3.44 9
29 06/09/2020 21:54:22 75.64,-162.73 53.03 06/09/2020 21:54:07 75.65,-162.65 53.04 2.50 15
30 06/09/2020 22:45:06 -75.65, 4.56 126.97 06/09/2020 22:44:49 -75.65, 4.67 126.97 3.07 17
31 06/09/2020 23:35:51 75.64, 171.91 53.02 06/09/2020 23:35:29 75.63, 171.95 53.02 1.13 22
32 06/10/2020 00:26:35 -75.65, -20.80 126.97 06/10/2020 00:26:11 -75.63, -20.73 126.99 2.73 24
33 06/10/2020 01:17:20 75.63, 146.55 53.01 06/10/2020 01:16:51 75.61, 146.55 53.00 2.53 29




NCC Satellite Simultaneous Nadir Overpasses (SNOs) Prediction Service
